Wind_Speed
72 69 64 62 65 70 71 71 65 64 65 71 69 67 67 64 63 64 63 62 63 63 65 67 67 66 62 63 55 54 55 54 52 56 52 53 51 51 51 47 47 47 46 48 49
71 73 73 66 62 64 70 74 72 69 65 63 67 66 69 69 66 65 65 62 64 63 68 68 69 69 64 60 60 55 53 54 56 55 52 49 48 49 49 47 47 48 49 50 51
72 73 74 69 65 68 66 74 76 75 69 68 66 67 67 71 73 70 70 64 64 67 65 65 70 69 65 62 60 54 55 55 52 50 47 48 46 46 47 48 46 47 48 50 53
78 75 72 71 65 66 67 62 69 77 77 74 72 69 69 71 70 67 67 64 65 63 63 59 55 57 57 57 60 54 54 54 52 50 48 48 48 49 48 49 51 48 51 50 53
73 73 73 69 71 65 65 63 67 69 75 75 75 73 71 73 68 67 69 64 63 59 59 60 58 61 61 60 60 63 61 60 57 55 54 53 53 54 54 52 54 55 53 55 56
76 74 73 75 70 67 71 64 63 66 69 73 76 74 68 66 66 64 62 61 59 56 59 58 59 62 64 66 64 64 62 60 55 55 51 53 56 55 54 61 63 58 55 60 60
80 77 78 75 74 71 69 67 64 63 64 71 70 70 63 61 61 60 59 60 59 60 61 65 63 62 64 64 65 62 63 63 58 54 55 57 56 53 57 60 66 64 62 66 68
82 83 80 77 76 72 66 66 64 63 62 63 61 55 63 60 61 60 65 63 65 64 61 60 64 67 67 69 69 66 66 66 62 63 61 59 61 56 61 68 71 72 66 64 69
84 82 77 77 77 76 74 73 71 70 66 62 65 64 65 68 69 69 63 70 71 64 64 66 68 70 73 76 69 64 62 61 62 61 66 65 66 67 66 68 76 78 81 69 66
89 86 80 79 82 80 78 80 74 72 77 72 68 73 74 76 80 72 65 67 65 69 72 72 72 73 74 75 70 68 65 63 65 65 62 69 70 74 76 79 84 84 75 69 65
86 87 86 89 89 86 85 79 82 79 76 81 82 80 80 86 79 74 71 73 78 79 75 76 77 79 80 76 74 71 70 66 67 71 72 71 76 78 82 86 88 80 70 68 66
98 99 98 94 96 95 89 82 87 76 79 78 84 82 80 79 75 78 81 82 82 84 84 85 86 81 78 80 79 78 76 74 74 74 75 76 78 84 88 87 87 78 72 70 70
98 96 93 95 96 92 89 87 84 84 78 84 85 85 81 80 83 85 85 87 86 90 87 86 90 83 84 82 82 81 81 80 78 81 80 82 84 91 89 89 84 79 78 77 76
102 98 100 96 94 95 92 93 95 88 86 89 89 88 89 89 91 93 90 91 93 94 97 93 93 90 83 85 86 84 86 85 87 85 87 88 88 89 93 86 81 80 78 79 80
111 110 104 100 98 96 99 98 98 94 98 94 88 94 94 95 92 95 96 98 95 97 100 100 95 95 91 87 89 87 89 91 89 90 90 88 94 88 91 88 84 82 84 86 85
119 113 108 105 105 103 105 104 104 104 101 100 97 98 102 100 101 102 100 99 102 103 101 103 97 98 98 95 95 95 96 100 99 101 98 99 104 91 101 91 91 88 91 91 92
127 123 119 113 109 113 113 115 114 111 109 109 103 104 109 107 107 105 104 106 109 107 105 104 104 106 102 98 97 97 99 102 104 105 104 110 104 96 101 97 93 95 93 94 95
133 131 127 122 122 119 119 121 117 106 114 115 110 108 110 114 112 109 110 113 113 110 112 108 110 106 105 101 104 106 104 104 107 107 106 106 101 98 97 103 99 102 103 102 100
135 133 128 129 130 125 121 120 111 113 115 113 111 107 111 116 111 105 110 110 113 109 109 110 105 102 101 101 101 107 109 108 109 108 109 102 103 100 105 102 104 103 107 109 106
129 132 129 130 129 130 126 119 116 119 115 110 111 115 113 114 112 111 113 111 113 106 104 106 104 110 111 100 102 107 108 107 108 112 109 107 103 103 111 108 103 107 111 110 107
139 135 133 133 126 127 129 116 118 121 116 120 117 115 114 114 117 117 117 118 115 110 113 112 110 108 117 109 107 110 110 114 116 114 114 111 108 107 111 110 111 111 105 101 93
148 145 143 144 146 140 133 131 129 124 121 119 118 123 120 116 122 121 121 124 121 115 118 120 116 112 116 114 115 114 117 118 117 119 117 116 112 112 111 112 106 98 90 82 82
151 151 148 148 147 139 136 133 132 128 129 129 126 125 125 124 123 124 127 130 124 127 123 125 122 120 115 117 120 124 118 119 120 119 116 121 111 112 109 100 93 89 85 79 76
147 149 148 147 146 143 140 138 137 133 135 134 133 132 129 130 131 128 128 132 132 133 130 132 128 126 125 125 129 130 123 121 120 120 114 108 102 95 91 92 89 87 82 81 77
126 130 134 135 135 139 142 139 140 138 138 136 135 135 135 136 133 133 133 135 130 128 130 130 129 128 125 123 119 119 114 105 106 105 103 92 94 82 82 85 84 82 76 75 75
114 116 112 120 118 119 124 124 128 131 131 131 132 135 139 138 137 137 137 134 129 129 131 132 126 126 116 108 108 108 95 94 96 90 90 88 77 75 81 80 75 80 73 73 70
106 108 107 110 102 108 108 113 114 115 114 114 115 119 121 126 126 125 129 127 126 123 119 115 111 109 101 102 100 91 85 88 83 80 80 77 70 71 76 71 69 79 71 68 68
Wind_Direction
271 271 273 277 278 274 266 265 267 269 271 268 272 273 272 274 274 274 276 278 278 277 283 284 283 285 283 283 283 289 288 286 284 286 286 284 280 282 278 277 274 275 274 275 278
272 272 272 274 278 274 269 266 267 267 269 271 269 270 270 271 274 275 276 278 280 279 281 283 282 282 283 278 285 288 288 288 283 283 283 283 281 281 276 274 274 271 277 278 276
269 271 270 274 274 276 271 267 267 268 270 265 265 266 268 270 271 274 276 278 276 277 281 282 280 284 278 279 282 287 289 281 284 283 280 279 282 278 278 277 276 274 276 278 277
269 269 272 272 274 276 272 270 270 268 270 268 267 268 270 269 272 275 276 277 279 276 277 280 280 283 278 278 281 286 286 284 282 282 283 282 283 283 279 279 282 282 276 272 274
268 271 272 273 273 274 275 271 271 272 268 268 267 269 274 273 274 274 277 273 274 275 277 276 276 278 278 280 283 286 287 283 280 278 280 282 282 285 287 288 291 287 281 276 272
274 271 271 270 271 274 277 272 278 271 268 266 267 267 271 273 274 276 273 273 271 271 275 277 279 280 280 281 283 283 286 287 288 281 282 283 284 287 290 292 292 290 297 280 272
272 269 270 270 270 276 275 276 277 270 269 266 265 265 264 267 271 272 269 268 271 275 277 279 281 283 283 282 281 282 284 286 288 284 283 284 286 289 294 294 293 292 296 287 274
272 271 271 273 271 272 275 274 274 274 270 271 263 261 266 270 278 279 267 267 272 277 281 281 279 281 283 285 286 285 283 281 284 285 287 285 288 289 295 296 296 296 295 291 282
270 270 273 272 275 272 274 274 276 276 272 265 262 266 274 280 281 284 276 273 274 276 279 278 278 279 278 282 284 281 281 279 284 283 285 288 290 292 295 295 296 297 296 290 277
267 268 268 271 271 269 271 270 269 269 274 267 264 269 273 278 281 282 276 272 274 278 278 277 276 278 282 284 283 283 277 283 286 285 287 292 289 292 295 296 298 297 292 280 277
265 265 265 267 268 268 268 268 268 269 266 266 265 269 272 277 277 277 275 273 276 276 278 283 279 281 284 285 283 282 286 284 285 286 288 290 292 293 296 297 298 295 285 281 278
262 262 265 267 267 268 268 266 263 266 263 264 266 268 275 273 273 274 273 273 276 280 279 281 281 285 282 283 283 282 285 287 286 287 288 286 290 293 293 297 296 290 285 281 282
261 260 264 267 267 268 264 266 267 265 262 260 267 267 270 273 274 272 272 271 273 279 279 281 281 280 282 281 283 282 285 286 287 287 287 288 292 291 292 294 293 289 287 285 284
262 260 261 263 264 267 266 266 269 265 263 259 264 266 267 268 272 272 272 271 272 273 275 279 281 281 281 282 283 282 285 287 286 288 289 290 289 291 292 292 287 286 287 287 286
262 264 262 261 259 260 262 263 265 264 266 265 265 265 264 268 267 269 270 271 272 273 274 277 278 280 280 282 283 284 285 285 286 287 285 287 290 293 293 288 287 285 284 283 283
262 261 261 261 259 261 260 262 264 264 264 265 267 266 266 267 268 269 271 273 274 276 275 276 277 277 277 281 282 282 284 285 284 285 285 286 287 290 289 289 286 285 285 284 283
260 262 262 260 260 261 261 262 265 266 268 264 264 264 264 266 268 268 268 270 274 276 274 274 275 275 277 279 279 280 280 280 283 285 284 283 286 288 288 288 287 285 283 284 284
260 261 259 259 262 262 261 263 265 265 267 269 269 273 264 263 266 268 269 268 270 270 273 274 274 272 278 278 279 279 281 281 280 280 284 287 287 286 285 289 288 288 287 286 285
261 261 260 260 262 261 261 263 264 264 264 268 269 269 265 269 272 266 270 271 270 271 271 272 274 275 276 277 280 279 279 280 281 283 282 283 285 284 285 284 286 286 287 286 284
256 258 260 262 263 263 263 265 265 266 266 264 264 266 268 272 271 270 271 270 269 270 273 274 273 277 279 280 280 280 280 282 282 281 282 282 281 286 285 286 286 287 287 286 285
255 255 258 259 257 259 264 264 262 263 264 265 266 263 267 267 268 271 271 272 271 272 275 275 276 276 278 282 281 281 281 282 281 283 284 285 286 287 285 287 287 286 284 283 283
252 252 254 255 256 255 256 259 261 263 262 262 263 267 267 267 269 270 271 271 273 275 273 274 278 277 278 281 281 281 282 280 280 283 282 285 285 285 286 285 286 284 281 278 281
251 252 254 255 256 256 255 258 256 258 262 262 264 263 263 263 264 266 268 269 272 273 275 276 277 279 280 282 280 281 282 281 281 282 283 284 286 285 286 286 281 278 277 276 276
253 254 255 259 258 256 257 256 256 255 258 260 259 261 262 262 264 265 267 268 269 271 273 276 277 279 278 280 281 281 284 283 283 284 285 284 284 283 283 281 277 276 276 275 273
252 253 254 255 255 255 256 257 255 255 258 260 258 259 260 262 262 264 266 267 268 272 275 277 278 279 279 279 280 280 281 283 282 281 282 282 282 282 279 276 276 276 275 273 271
253 253 252 252 253 254 255 256 257 256 257 259 258 257 259 261 262 261 264 266 268 273 275 275 276 276 278 280 278 278 282 281 280 281 280 279 277 276 271 274 277 277 276 275 273
251 253 253 252 248 252 255 256 255 255 257 258 258 258 258 260 262 263 266 267 266 268 270 273 274 275 276 277 278 281 281 279 281 280 277 276 275 271 271 271 273 273 275 273 273
Height
10796 10797 10797 10798 10799 10799 10798 10798 10798 10798 10799 10802 10802 10803 10802 10802 10804 10803 10803 10803 10803 10802 10802 10801 10799 10796 10795 10793 10792 10791 10790 10788 10788 10785 10786 10782 10782 10782 10779 10779 10774 10772 10772 10770 10769
10782 10784 10785 10786 10786 10785 10784 10785 10785 10786 10787 10789 10789 10790 10789 10790 10793 10792 10791 10791 10792 10790 10790 10788 10788 10785 10783 10782 10781 10780 10780 10780 10777 10775 10776 10772 10771 10772 10770 10767 10766 10761 10760 10759 10757
10767 10768 10770 10772 10773 10774 10772 10772 10772 10773 10774 10774 10774 10775 10775 10777 10780 10779 10777 10778 10778 10778 10777 10775 10775 10773 10770 10770 10770 10770 10768 10768 10768 10765 10764 10762 10759 10760 10759 10758 10755 10754 10752 10748 10745
10751 10752 10755 10757 10759 10759 10759 10759 10760 10759 10760 10761 10760 10763 10762 10763 10767 10765 10764 10764 10765 10765 10765 10764 10762 10760 10759 10759 10758 10758 10757 10756 10757 10754 10752 10750 10748 10749 10749 10747 10744 10746 10743 10739 10733
10735 10737 10740 10742 10744 10745 10745 10746 10746 10746 10745 10746 10746 10749 10749 10749 10750 10750 10752 10751 10752 10751 10752 10750 10749 10749 10748 10748 10748 10747 10746 10743 10744 10741 10739 10737 10736 10736 10736 10735 10731 10734 10731 10729 10726
10718 10721 10724 10727 10728 10729 10731 10730 10732 10732 10731 10731 10732 10735 10735 10735 10736 10738 10739 10739 10740 10739 10739 10738 10736 10736 10735 10735 10734 10734 10733 10731 10730 10729 10726 10723 10724 10722 10724 10720 10716 10719 10721 10713 10711
10700 10705 10708 10711 10713 10714 10715 10717 10718 10718 10716 10716 10716 10719 10720 10722 10722 10723 10725 10727 10727 10727 10726 10724 10724 10724 10722 10721 10718 10720 10719 10717 10717 10714 10714 10709 10710 10713 10708 10705 10699 10702 10712 10696 10695
10682 10686 10690 10694 10697 10699 10701 10703 10704 10704 10702 10702 10703 10704 10705 10707 10708 10711 10712 10713 10713 10713 10712 10710 10710 10710 10709 10708 10706 10704 10704 10702 10705 10698 10703 10696 10692 10700 10694 10689 10685 10684 10692 10689 10680
10664 10668 10673 10677 10680 10683 10685 10688 10689 10690 10691 10690 10691 10691 10692 10692 10694 10697 10699 10700 10700 10700 10698 10696 10695 10694 10694 10695 10694 10689 10690 10686 10685 10690 10685 10683 10677 10671 10680 10680 10669 10667 10666 10672 10666
10648 10650 10657 10661 10664 10667 10669 10672 10673 10674 10676 10676 10678 10676 10682 10679 10681 10683 10684 10685 10685 10684 10683 10682 10679 10678 10678 10681 10679 10675 10677 10673 10669 10670 10674 10665 10664 10657 10656 10658 10657 10651 10648 10650 10648
10628 10632 10638 10642 10645 10649 10653 10655 10657 10656 10660 10660 10665 10663 10666 10666 10668 10668 10667 10668 10667 10667 10663 10668 10661 10663 10663 10665 10662 10661 10658 10660 10657 10655 10657 10652 10647 10644 10640 10640 10635 10629 10631 10630 10631
10612 10613 10619 10621 10625 10630 10634 10636 10638 10642 10646 10644 10646 10648 10651 10651 10653 10652 10651 10651 10649 10647 10647 10648 10645 10648 10648 10644 10646 10643 10644 10643 10641 10636 10640 10637 10635 10630 10622 10624 10617 10612 10613 10612 10610
10591 10594 10598 10601 10604 10609 10613 10616 10616 10620 10629 10628 10629 10633 10635 10634 10635 10632 10635 10630 10632 10629 10626 10631 10628 10635 10629 10628 10627 10627 10628 10626 10624 10618 10621 10618 10618 10609 10609 10604 10600 10594 10593 10592 10592
10565 10573 10578 10582 10588 10587 10593 10593 10596 10601 10602 10612 10613 10618 10616 10612 10617 10612 10616 10611 10613 10613 10608 10613 10610 10612 10614 10609 10608 10612 10607 10610 10605 10601 10601 10600 10599 10590 10585 10591 10583 10578 10573 10571 10569
10536 10546 10553 10559 10566 10570 10571 10573 10574 10578 10576 10590 10606 10597 10595 10592 10596 10598 10593 10593 10593 10594 10590 10590 10595 10591 10591 10594 10593 10589 10592 10588 10587 10584 10582 10580 10571 10576 10566 10567 10566 10562 10556 10552 10548
10511 10518 10528 10535 10540 10546 10547 10548 10553 10554 10567 10569 10579 10579 10574 10572 10571 10577 10575 10573 10572 10571 10574 10567 10578 10573 10571 10574 10572 10573 10569 10568 10564 10562 10566 10562 10551 10571 10536 10552 10538 10541 10532 10528 10525
10479 10490 10498 10508 10516 10517 10520 10522 10526 10542 10546 10540 10551 10558 10551 10549 10551 10553 10554 10552 10550 10549 10550 10551 10551 10552 10555 10556 10553 10550 10550 10547 10541 10542 10544 10527 10543 10545 10522 10524 10521 10509 10510 10506 10501
10456 10463 10471 10480 10484 10487 10493 10496 10510 10528 10512 10512 10523 10527 10527 10529 10526 10530 10530 10527 10526 10530 10520 10530 10522 10531 10539 10536 10527 10529 10528 10523 10516 10523 10517 10506 10517 10520 10514 10494 10498 10486 10481 10479 10477
10426 10434 10439 10447 10453 10459 10462 10472 10498 10493 10490 10497 10496 10495 10495 10498 10500 10507 10506 10501 10500 10512 10509 10506 10503 10505 10514 10514 10511 10500 10506 10501 10494 10497 10489 10502 10491 10491 10476 10480 10470 10465 10456 10452 10450
10400 10404 10410 10415 10421 10424 10432 10462 10470 10457 10464 10474 10472 10469 10471 10472 10472 10479 10478 10474 10468 10491 10487 10481 10490 10481 10477 10499 10494 10481 10476 10477 10479 10464 10468 10467 10473 10470 10447 10449 10452 10443 10430 10422 10424
10369 10379 10390 10385 10387 10393 10412 10431 10434 10430 10443 10441 10445 10443 10449 10448 10447 10456 10448 10439 10447 10462 10463 10457 10466 10473 10452 10465 10464 10454 10458 10449 10441 10442 10436 10439 10444 10443 10424 10422 10421 10415 10404 10398 10400
10338 10350 10357 10357 10353 10375 10401 10404 10399 10407 10416 10414 10421 10420 10422 10423 10421 10425 10423 10409 10423 10439 10432 10430 10443 10448 10438 10439 10427 10431 10422 10421 10421 10415 10409 10407 10414 10405 10406 10403 10392 10382 10380 10380 10376
10304 10311 10320 10323 10328 10350 10363 10368 10371 10381 10384 10388 10394 10395 10396 10399 10396 10400 10396 10385 10403 10397 10404 10403 10417 10415 10422 10413 10403 10386 10402 10394 10391 10389 10397 10377 10392 10378 10371 10366 10364 10359 10358 10360 10359
10270 10273 10282 10294 10308 10314 10325 10337 10343 10349 10351 10355 10362 10364 10367 10368 10365 10373 10373 10368 10374 10371 10382 10378 10388 10386 10388 10385 10371 10361 10369 10368 10365 10357 10359 10356 10357 10358 10351 10336 10338 10338 10338 10334 10338
10231 10237 10252 10261 10272 10277 10282 10296 10303 10312 10322 10326 10330 10335 10337 10336 10340 10345 10346 10344 10350 10348 10353 10353 10358 10354 10353 10356 10345 10336 10337 10347 10335 10331 10324 10338 10324 10336 10322 10311 10311 10312 10318 10316 10313
10194 10200 10219 10222 10238 10247 10254 10270 10270 10277 10283 10295 10300 10299 10302 10306 10309 10315 10318 10324 10330 10329 10330 10322 10333 10321 10328 10322 10312 10312 10329 10319 10307 10310 10305 10300 10311 10308 10294 10293 10300 10290 10296 10292 10296
10168 10171 10179 10186 10214 10220 10235 10235 10240 10244 10254 10264 10267 10268 10274 10276 10281 10293 10295 10298 10299 10300 10302 10301 10301 10298 10304 10291 10286 10298 10303 10289 10291 10286 10279 10280 10287 10283 10274 10282 10284 10271 10275 10277 10277